This demonstration page uses our WeatherBlox Daily Observations layout. Learn more.

Left ArrowRight Arrow

36.17497, -115.13722

Hourly Observations for January 20, 2017

Temp ( °F °C ) Dew Point ( °F °C ) Humidity (%) Winds ( mph kmh ) Pressure ( in mb ) Visibility ( mi km ) Precip ( " mm )
12:53 am 00:53 Clear 43 6.1 42 5.6 97 97 E 3 6 29.74 1007 10 16 N/A
1:53 am 01:53 Clear 42 5.6 41 5 96 96 NNW 3 6 29.75 1007 10 16 N/A
2:53 am 02:53 Clear 44 6.7 41 5 89 89 E 7 11 29.74 1007 10 16 N/A
3:53 am 03:53 Mostly Cloudy 44 6.7 39 3.9 83 83 SE 8 13 29.71 1006 10 16 N/A
4:53 am 04:53 Mostly Clear 47 8.3 36 2.2 66 66 S 9 15 29.67 1005 10 16 N/A
5:49 am 05:49 Cloudy 48 9 36 2 62 62 SSE 12 19 29.65 1004 10 16 N/A
5:53 am 05:53 Cloudy 48 8.9 36 2.2 63 63 SSE 12 19 29.65 1004 10 16 N/A
6:53 am 06:53 Cloudy 48 8.9 34 1.1 58 58 S 14 22 29.64 1004 10 16 N/A
7:53 am 07:53 Cloudy 48 8.9 37 2.8 66 66 S 16 26 29.64 1004 10 16 N/A
8:53 am 08:53 Cloudy 48 8.9 38 3.3 68 68 SSE 13 20 29.64 1004 10 16 N/A
9:53 am 09:53 Cloudy 47 8.3 40 4.4 77 77 SSE 12 19 29.65 1004 10 16 N/A
10:06 am 10:06 Cloudy with Light Rain 46 7.8 41 5 83 83 SE 9 15 29.62 1003 7 11 0.01 0.25
10:39 am 10:39 Cloudy with Light Rain 47 8.3 42 5.6 83 83 SSE 12 19 29.59 1002 10 16 0.04 1.02
10:53 am 10:53 Cloudy with Light Rain 47 8.3 42 5.6 83 83 SSE 14 22 29.60 1003 10 16 0.04 1.02
11:44 am 11:44 Cloudy with Light Rain 46 8 41 5 82 82 S 16 26 29.53 1000 10 16 N/A
11:53 am 11:53 Cloudy with Light Rain 47 8.3 41 5 80 80 SSE 16 26 29.57 1001 9 14 0.01 0.25
12:18 pm 12:18 Cloudy with Light Rain 45 7 41 5 87 87 S 13 20 29.53 1000 5 8 N/A
12:26 pm 12:26 Cloudy with Light Rain 45 7 41 5 87 87 S 12 19 29.53 1000 5 8 N/A
12:33 pm 12:33 Cloudy with Light Rain 45 7.2 41 5 86 86 S 12 19 29.53 1000 6 10 0.07 1.78
12:53 pm 12:53 Cloudy with Light Rain 45 7.2 42 5.6 90 90 SE 8 13 29.54 1000 7 11 0.09 2.29
1:35 pm 13:35 Cloudy with Light Rain 45 7.2 42 5.6 90 90 ESE 9 15 29.50 999 9 14 0.04 1.02
1:53 pm 13:53 Cloudy with Light Rain 45 7.2 42 5.6 90 90 ESE 8 13 29.51 999 5 8 0.08 2.03
2:23 pm 14:23 Cloudy with Light Rain 45 7.2 42 5.6 90 90 ESE 10 17 29.44 997 10 16 0.02 0.51
2:53 pm 14:53 Cloudy with Light Rain 45 7.2 43 6.1 93 93 ESE 7 11 29.47 998 7 11 0.03 0.76
3:28 pm 15:28 Cloudy with Light Rain 45 7 43 6 93 93 ESE 7 11 29.44 997 5 8 N/A
3:36 pm 15:36 Cloudy with Light Rain 45 7 45 7 100 100 ESE 7 11 29.44 997 4 6 N/A
3:53 pm 15:53 Cloudy with Light Rain 45 7.2 44 6.7 97 97 SE 6 9 29.44 997 3 5 0.12 3.05
4:16 pm 16:16 Cloudy with Light Rain 45 7.2 44 6.7 97 97 SE 8 13 29.38 995 7 11 0.03 0.76
4:29 pm 16:29 Cloudy with Light Rain 45 7.2 44 6.7 97 97 SE 7 11 29.38 995 10 16 0.03 0.76
4:53 pm 16:53 Cloudy with Light Rain 46 7.8 43 6.1 89 89 SSE 14 22 29.39 995 10 16 0.03 0.76
5:10 pm 17:10 Cloudy with Light Rain 46 8 43 6 87 87 S 13 20 29.32 993 10 16 N/A
5:53 pm 17:53 Cloudy with Light Rain 46 7.8 41 5 83 83 SE 13 20 29.36 994 10 16 N/A
6:53 pm 18:53 Cloudy with Light Rain 48 8.9 41 5 77 77 SSW 10 17 29.34 994 10 16 N/A
7:53 pm 19:53 Clear with Light Rain 48 8.9 39 3.9 71 71 S 12 19 29.34 994 10 16 N/A
8:53 pm 20:53 Partly Cloudy with Light Rain 47 8.3 39 3.9 74 74 S 14 22 29.34 994 10 16 N/A
9:53 pm 21:53 Clear with Light Rain 49 9.4 34 1.1 56 56 W 18 30 29.35 994 10 16 N/A
10:53 pm 22:53 Clear with Light Rain 49 9.4 32 undefined 52 52 WSW 17 28 29.34 994 10 16 N/A
11:53 pm 23:53 Clear with Light Rain 47 8.3 32 undefined 56 56 WSW 15 24 29.33 993 10 16 N/A

Powered by AerisWeather